When you browse on this site, cookies collect data to enhance your experience and personalize the content and advertising you see.
Visit our Privacy Policy to learn more. By continuing to use the site, you agree to this use of cookies and data.
  • In Czech Republic
  • List of Countries
  • For 7 days
  • Water Temperature
  • Satellite Maps
  • Weather Map
  • Weather Widgets
  • user-avatar
    Login

    Hourly Weather Wlora

    Today, 17 November, Saturday

    Time Temperature Precipitation Wind Pressure Humidity
    00:00 +9°C° 0.9 mm 5 mps 763 mmHg 76%
    01:00 +9°C° 0.9 mm 5 mps 763 mmHg 76%
    02:00 +10°C° 0.7 mm 4 mps 763 mmHg 76%
    03:00 +10°C° 0.7 mm 4 mps 763 mmHg 76%
    04:00 +10°C° 0.7 mm 4 mps 763 mmHg 76%
    05:00 +10°C° 0.4 mm 4 mps 763 mmHg 76%
    06:00 +10°C° 0.4 mm 4 mps 763 mmHg 75%
    07:00 +10°C° 0.4 mm 4 mps 763 mmHg 75%
    08:00 +10°C° 0.2 mm 5 mps 763 mmHg 69%
    09:00 +12°C° 0.2 mm 5 mps 763 mmHg 63%
    10:00 +13°C° 0.2 mm 5 mps 763 mmHg 57%
    11:00 +14°C° 0 mm 5 mps 763 mmHg 55%
    12:00 +14°C° 0 mm 5 mps 763 mmHg 53%
    13:00 +15°C° 0 mm 5 mps 762 mmHg 51%
    14:00 +14°C° 0 mm 4 mps 762 mmHg 54%
    15:00 +13°C° 0 mm 4 mps 762 mmHg 57%
    16:00 +13°C° 0 mm 4 mps 762 mmHg 59%
    17:00 +12°C° 0 mm 4 mps 762 mmHg 62%
    18:00 +11°C° 0 mm 4 mps 762 mmHg 64%
    19:00 +9°C° 0 mm 5 mps 763 mmHg 67%
    20:00 +9°C° 0 mm 5 mps 763 mmHg 67%
    21:00 +9°C° 0 mm 5 mps 763 mmHg 67%
    22:00 +9°C° 0 mm 5 mps 763 mmHg 67%
    23:00 +9°C° 0 mm 5 mps 763 mmHg 67%

    Tomorrow, 18 November, Sunday

    Time Temperature Precipitation Wind Pressure Humidity
    00:00 +9°C° 0 mm 5 mps 763 mmHg 67%
    01:00 +9°C° 0 mm 5 mps 762 mmHg 68%
    02:00 +9°C° 0.1 mm 5 mps 762 mmHg 68%
    03:00 +9°C° 0.1 mm 5 mps 762 mmHg 69%
    04:00 +8°C° 0.1 mm 5 mps 761 mmHg 70%
    05:00 +9°C° 0.4 mm 5 mps 761 mmHg 71%
    06:00 +9°C° 0.4 mm 5 mps 761 mmHg 72%
    07:00 +9°C° 0.4 mm 5 mps 761 mmHg 74%
    08:00 +10°C° 1.2 mm 4 mps 761 mmHg 72%
    09:00 +11°C° 1.2 mm 4 mps 761 mmHg 71%
    10:00 +12°C° 1.2 mm 4 mps 761 mmHg 70%
    11:00 +11°C° 2.4 mm 4 mps 761 mmHg 73%
    12:00 +11°C° 2.4 mm 4 mps 760 mmHg 77%
    13:00 +11°C° 2.4 mm 4 mps 760 mmHg 80%
    14:00 +10°C° 1.4 mm 4 mps 760 mmHg 81%
    15:00 +10°C° 1.4 mm 4 mps 760 mmHg 82%
    16:00 +10°C° 1.4 mm 4 mps 759 mmHg 84%
    17:00 +10°C° 0.1 mm 4 mps 759 mmHg 82%
    18:00 +10°C° 0.1 mm 4 mps 759 mmHg 81%
    19:00 +10°C° 0.1 mm 4 mps 759 mmHg 80%
    20:00 +10°C° 0 mm 4 mps 759 mmHg 79%
    21:00 +10°C° 0 mm 4 mps 759 mmHg 79%
    22:00 +10°C° 0 mm 4 mps 758 mmHg 78%
    23:00 +10°C° 0 mm 3 mps 758 mmHg 78%

    Day after tomorrow, 19 November, Monday

    Time Temperature Precipitation Wind Pressure Humidity
    00:00 +10°C° 0 mm 3 mps 758 mmHg 77%
    01:00 +10°C° 0 mm 3 mps 758 mmHg 76%
    02:00 +10°C° 0 mm 3 mps 758 mmHg 76%
    03:00 +10°C° 0 mm 3 mps 758 mmHg 76%
    04:00 +9°C° 0 mm 3 mps 758 mmHg 77%
    05:00 +9°C° 0 mm 2 mps 758 mmHg 77%
    06:00 +9°C° 0 mm 2 mps 758 mmHg 77%
    07:00 +9°C° 0 mm 2 mps 758 mmHg 77%
    08:00 +12°C° 0 mm 2 mps 758 mmHg 72%
    09:00 +14°C° 0 mm 2 mps 758 mmHg 67%
    10:00 +15°C° 0 mm 1 mps 758 mmHg 62%
    11:00 +16°C° 0 mm 2 mps 757 mmHg 62%
    12:00 +16°C° 0 mm 2 mps 757 mmHg 63%
    13:00 +16°C° 0 mm 3 mps 757 mmHg 63%
    14:00 +16°C° 0.4 mm 3 mps 757 mmHg 69%
    15:00 +14°C° 0.4 mm 4 mps 757 mmHg 75%
    16:00 +13°C° 0.4 mm 4 mps 757 mmHg 80%
    17:00 +13°C° 0.7 mm 5 mps 757 mmHg 82%
    18:00 +12°C° 0.7 mm 7 mps 756 mmHg 84%
    19:00 +12°C° 0.7 mm 8 mps 756 mmHg 86%
    20:00 +12°C° 1.9 mm 8 mps 756 mmHg 86%
    21:00 +12°C° 1.9 mm 9 mps 756 mmHg 86%
    22:00 +12°C° 1.9 mm 9 mps 756 mmHg 85%
    23:00 +12°C° 3.9 mm 9 mps 755 mmHg 86%

    20 November, Tuesday

    Time Temperature Precipitation Wind Pressure Humidity
    00:00 +12°C° 3.9 mm 10 mps 755 mmHg 87%
    01:00 +11°C° 3.9 mm 10 mps 755 mmHg 88%
    02:00 +12°C° 2.9 mm 10 mps 754 mmHg 89%
    03:00 +12°C° 2.9 mm 11 mps 754 mmHg 90%
    04:00 +13°C° 2.9 mm 11 mps 753 mmHg 91%
    05:00 +13°C° 2.3 mm 11 mps 753 mmHg 91%
    06:00 +13°C° 2.3 mm 11 mps 753 mmHg 91%
    07:00 +14°C° 2.3 mm 11 mps 753 mmHg 91%
    08:00 +14°C° 2.4 mm 11 mps 753 mmHg 91%
    09:00 +14°C° 2.4 mm 12 mps 753 mmHg 91%
    10:00 +15°C° 2.4 mm 12 mps 753 mmHg 91%
    11:00 +15°C° 1.6 mm 13 mps 752 mmHg 90%
    12:00 +15°C° 1.6 mm 13 mps 751 mmHg 89%
    13:00 +17°C° 1.6 mm 13 mps 751 mmHg 88%
    14:00 +17°C° 1.7 mm 13 mps 750 mmHg 87%
    15:00 +17°C° 1.7 mm 13 mps 750 mmHg 86%
    16:00 +18°C° 1.7 mm 13 mps 750 mmHg 85%
    17:00 +17°C° 0.9 mm 12 mps 750 mmHg 86%
    18:00 +17°C° 0.9 mm 10 mps 751 mmHg 88%
    19:00 +17°C° 0.9 mm 9 mps 751 mmHg 89%
    20:00 +16°C° 0.8 mm 9 mps 751 mmHg 88%
    21:00 +16°C° 0.8 mm 8 mps 752 mmHg 87%
    22:00 +16°C° 0.8 mm 8 mps 752 mmHg 86%
    23:00 +16°C° 1.1 mm 8 mps 752 mmHg 87%

    21 November, Wednesday

    Time Temperature Precipitation Wind Pressure Humidity
    00:00 +16°C° 1.1 mm 8 mps 752 mmHg 87%
    01:00 +16°C° 1.1 mm 9 mps 752 mmHg 87%
    02:00 +16°C° 1.6 mm 8 mps 752 mmHg 88%
    03:00 +15°C° 1.6 mm 8 mps 752 mmHg 88%
    04:00 +15°C° 1.6 mm 8 mps 752 mmHg 88%
    05:00 +15°C° 2.3 mm 8 mps 752 mmHg 88%
    06:00 +15°C° 2.3 mm 7 mps 753 mmHg 88%
    07:00 +15°C° 2.3 mm 7 mps 753 mmHg 88%
    08:00 +15°C° 2.3 mm 6 mps 753 mmHg 87%
    09:00 +16°C° 2.3 mm 5 mps 754 mmHg 87%
    10:00 +16°C° 2.3 mm 5 mps 754 mmHg 86%
    11:00 +17°C° 1.5 mm 4 mps 755 mmHg 84%
    12:00 +17°C° 1.5 mm 3 mps 755 mmHg 83%
    13:00 +17°C° 1.5 mm 3 mps 755 mmHg 81%
    14:00 +17°C° 0.9 mm 3 mps 755 mmHg 81%
    15:00 +17°C° 0.9 mm 4 mps 755 mmHg 81%
    16:00 +17°C° 0.9 mm 4 mps 755 mmHg 81%
    17:00 +15°C° 0.2 mm 4 mps 756 mmHg 84%
    18:00 +14°C° 0.2 mm 5 mps 757 mmHg 87%
    19:00 +14°C° 0.2 mm 5 mps 757 mmHg 89%
    20:00 +14°C° 0.5 mm 5 mps 758 mmHg 89%
    21:00 +14°C° 0.5 mm 6 mps 759 mmHg 90%
    22:00 +14°C° 0.5 mm 6 mps 759 mmHg 90%
    23:00 +14°C° 0.1 mm 6 mps 760 mmHg 89%

    22 November, Thursday

    Time Temperature Precipitation Wind Pressure Humidity
    00:00 +13°C° 0.1 mm 5 mps 760 mmHg 88%
    01:00 +13°C° 0.1 mm 5 mps 760 mmHg 87%
    02:00 +13°C° 0 mm 5 mps 761 mmHg 85%
    03:00 +13°C° 0 mm 4 mps 761 mmHg 84%
    04:00 +13°C° 0 mm 4 mps 761 mmHg 82%
    05:00 +13°C° 0 mm 3 mps 761 mmHg 81%
    06:00 +13°C° 0 mm 2 mps 762 mmHg 80%
    07:00 +13°C° 0 mm 2 mps 762 mmHg 79%
    08:00 +14°C° 0 mm 2 mps 763 mmHg 72%
    09:00 +15°C° 0 mm 2 mps 763 mmHg 65%
    10:00 +16°C° 0 mm 2 mps 763 mmHg 58%
    11:00 +17°C° 0 mm 2 mps 763 mmHg 57%
    12:00 +17°C° 0 mm 2 mps 763 mmHg 55%
    13:00 +18°C° 0 mm 3 mps 763 mmHg 54%
    14:00 +17°C° 0.1 mm 3 mps 763 mmHg 58%
    15:00 +16°C° 0.1 mm 3 mps 763 mmHg 63%
    16:00 +15°C° 0.1 mm 4 mps 763 mmHg 67%
    17:00 +14°C° 0.1 mm 4 mps 764 mmHg 70%
    18:00 +14°C° 0.1 mm 4 mps 764 mmHg 72%
    19:00 +13°C° 0.1 mm 3 mps 764 mmHg 75%
    20:00 +13°C° 0.1 mm 3 mps 764 mmHg 77%
    21:00 +13°C° 0.1 mm 3 mps 765 mmHg 79%
    22:00 +13°C° 0.1 mm 3 mps 765 mmHg 81%
    23:00 +13°C° 0 mm 3 mps 765 mmHg 82%
    Show more